User: anonymous   Login
Location: Chiroubles
(46.1812°N, 4.6660°E)
Time: 16:00:56
(UTC+00:00)
Language:

DNEPR-1 R/B - Orbit

View from above orbital plane
View from above orbital plane
View from above satellite
View from above satellite

Ground track
Ground track

The orbit data is extracted from the following two-line orbital elements,

1 26550U 00057F   20296.15390325 -.00000087  00000-0  95574-5 0  9998
2 26550  64.5635 356.8712 0527164 171.2440 189.8278 13.80796862 11594
Epoch (UTC): 22 October 2020 03:41:37
Eccentricity: 0.0527164
inclination: 64.5635°
perigee height: 574 km
apogee height: 1348 km
right ascension of ascending node: 356.8712°
argument of perigee: 171.2440°
revolutions per day: 13.80796862
mean anomaly at epoch: 189.8278°
orbit number at epoch: 1159

The dashed part of the orbit path shows where the satellite is in the earth's shadow,  

DLR